| time (UTC) | temp F | wind direction | speed knots | gust knots | rain 1hr in | rain 24hr in | rain mn in | humidity % | barometer mb |
| 20260507113036 | 51 | 0 | 0.0 | 6.1 | 0.00 | 0.00 | 0.00 | 76 | 1014.5 |
| 20260507111532 | 52 | 286 | 3.5 | 5.2 | 0.00 | 0.00 | 0.00 | 74 | 1014.4 |
| 20260507110042 | 55 | 288 | 3.5 | 7.0 | 0.00 | 0.00 | 0.00 | 67 | 1014.3 |
| 20260507104536 | 57 | 302 | 4.3 | 7.0 | 0.00 | 0.00 | 0.00 | 63 | 1014.3 |
| 20260507103043 | 57 | 309 | 3.5 | 7.8 | 0.00 | 0.00 | 0.00 | 63 | 1014.3 |
| 20260507101538 | 58 | 303 | 4.3 | 10.4 | 0.00 | 0.00 | 0.00 | 62 | 1014.3 |
| 20260507100037 | 58 | 298 | 3.5 | 8.7 | 0.00 | 0.00 | 0.00 | 61 | 1014.1 |
| 20260507094536 | 57 | 284 | 4.3 | 7.8 | 0.00 | 0.00 | 0.00 | 64 | 1014.2 |
| 20260507093032 | 56 | 257 | 0.0 | 3.5 | 0.00 | 0.00 | 0.00 | 64 | 1014.5 |
| 20260507091533 | 56 | 257 | 0.9 | 7.0 | 0.00 | 0.00 | 0.00 | 66 | 1014.0 |
| 20260507090035 | 58 | 254 | 3.5 | 9.6 | 0.00 | 0.00 | 0.00 | 62 | 1014.0 |
| 20260507084539 | 57 | 286 | 3.5 | 6.1 | 0.00 | 0.00 | 0.00 | 64 | 1013.9 |
| 20260507083033 | 60 | 306 | 1.7 | 8.7 | 0.00 | 0.00 | 0.00 | 60 | 1014.0 |
| 20260507081537 | 59 | 287 | 7.0 | 13.9 | 0.00 | 0.00 | 0.00 | 61 | 1013.8 |
| 20260507080035 | 58 | 259 | 6.1 | 8.7 | 0.00 | 0.00 | 0.00 | 63 | 1013.6 |
| 20260507074530 | 59 | 279 | 5.2 | 9.6 | 0.00 | 0.00 | 0.00 | 60 | 1013.8 |
| 20260507073031 | 60 | 294 | 6.1 | 9.6 | 0.00 | 0.00 | 0.00 | 59 | 1013.5 |
| 20260507071534 | 61 | 269 | 6.1 | 10.4 | 0.00 | 0.00 | 0.00 | 57 | 1013.5 |
| 20260507070042 | 61 | 270 | 4.3 | 7.8 | 0.00 | 0.00 | 0.00 | 57 | 1013.6 |
| 20260507064535 | 62 | 279 | 2.6 | 9.6 | 0.00 | 0.00 | 0.00 | 54 | 1013.6 |
| 20260507063036 | 63 | 250 | 7.8 | 13.9 | 0.00 | 0.00 | 0.00 | 54 | 1012.9 |
| 20260507061532 | 62 | 290 | 7.0 | 9.6 | 0.00 | 0.00 | 0.00 | 56 | 1012.9 |
| 20260507060032 | 64 | 306 | 6.1 | 10.4 | 0.00 | 0.00 | 0.00 | 54 | 1012.7 |
| 20260507054530 | 64 | 306 | 7.0 | 11.3 | 0.00 | 0.00 | 0.00 | 54 | 1012.8 |
| 20260507053032 | 66 | 290 | 9.6 | 16.5 | 0.00 | 0.00 | 0.00 | 50 | 1012.6 |
| 20260507051536 | 68 | 299 | 12.2 | 18.2 | 0.00 | 0.00 | 0.00 | 45 | 1012.4 |
| 20260507050033 | 67 | 281 | 9.6 | 13.0 | 0.00 | 0.00 | 0.00 | 47 | 1012.6 |
| 20260507044537 | 68 | 284 | 7.0 | 13.9 | 0.00 | 0.00 | 0.00 | 47 | 1012.5 |
| 20260507043031 | 68 | 293 | 8.7 | 13.9 | 0.00 | 0.00 | 0.00 | 46 | 1012.4 |
| 20260507041533 | 68 | 279 | 7.8 | 13.9 | 0.00 | 0.00 | 0.00 | 44 | 1012.4 |
| 20260507040042 | 69 | 290 | 9.6 | 14.8 | 0.00 | 0.00 | 0.00 | 44 | 1012.1 |
| 20260507034541 | 69 | 279 | 9.6 | 14.8 | 0.00 | 0.00 | 0.00 | 43 | 1012.0 |
| 20260507033043 | 69 | 280 | 11.3 | 16.5 | 0.00 | 0.00 | 0.00 | 45 | 1011.5 |
| 20260507031550 | 69 | 273 | 8.7 | 14.8 | 0.00 | 0.00 | 0.00 | 45 | 1011.4 |
| 20260507030033 | 70 | 285 | 8.7 | 13.0 | 0.00 | 0.00 | 0.00 | 45 | 1011.3 |
| 20260507024534 | 70 | 276 | 9.6 | 14.8 | 0.00 | 0.00 | 0.00 | 44 | 1011.5 |
| 20260507023035 | 71 | 294 | 7.8 | 13.0 | 0.00 | 0.00 | 0.00 | 42 | 1011.3 |
| 20260507021530 | 72 | 304 | 8.7 | 13.9 | 0.00 | 0.00 | 0.00 | 43 | 1011.2 |
| 20260507020030 | 74 | 306 | 10.4 | 14.8 | 0.00 | 0.00 | 0.00 | 39 | 1011.1 |
| 20260507014541 | 75 | 297 | 7.8 | 13.9 | 0.00 | 0.00 | 0.00 | 42 | 1011.1 |
| 20260507013039 | 76 | 304 | 8.7 | 14.8 | 0.00 | 0.00 | 0.00 | 40 | 1011.0 |
| 20260507011536 | 75 | 302 | 4.3 | 9.6 | 0.00 | 0.00 | 0.00 | 41 | 1011.1 |
| 20260507010039 | 77 | 299 | 6.1 | 12.2 | 0.00 | 0.00 | 0.00 | 39 | 1011.3 |
| 20260507004534 | 77 | 290 | 7.0 | 12.2 | 0.00 | 0.00 | 0.00 | 42 | 1010.9 |
| 20260507003035 | 76 | 221 | 2.6 | 4.3 | 0.00 | 0.00 | 0.00 | 64 | 1011.0 |
| 20260507001536 | 76 | 217 | 5.2 | 7.0 | 0.00 | 0.00 | 0.00 | 63 | 1010.6 |
| 20260507000034 | 76 | 223 | 3.5 | 8.7 | 0.00 | 0.00 | 0.00 | 61 | 1010.3 |
| 20260506234530 | 77 | 209 | 5.2 | 10.4 | 0.00 | 0.00 | 0.00 | 59 | 1010.3 |
| 20260506233031 | 77 | 208 | 7.0 | 12.2 | 0.00 | 0.00 | 0.00 | 54 | 1010.2 |
| 20260506231535 | 78 | 207 | 7.8 | 13.0 | 0.00 | 0.00 | 0.00 | 51 | 1010.3 |
| 20260506230033 | 79 | 206 | 8.7 | 14.8 | 0.00 | 0.00 | 0.00 | 50 | 1010.4 |
| 20260506224534 | 79 | 210 | 9.6 | 13.9 | 0.00 | 0.00 | 0.00 | 47 | 1010.7 |
| 20260506223031 | 78 | 232 | 8.7 | 13.9 | 0.00 | 0.00 | 0.00 | 49 | 1010.9 |
| 20260506221534 | 77 | 194 | 8.7 | 13.0 | 0.00 | 0.00 | 0.00 | 51 | 1011.2 |
| 20260506220032 | 77 | 205 | 8.7 | 14.8 | 0.00 | 0.00 | 0.00 | 55 | 1011.4 |
| 20260506214531 | 77 | 205 | 9.6 | 16.5 | 0.00 | 0.00 | 0.00 | 53 | 1011.3 |
| 20260506213037 | 77 | 215 | 9.6 | 18.2 | 0.00 | 0.00 | 0.00 | 54 | 1011.5 |
| 20260506211538 | 76 | 199 | 9.6 | 16.5 | 0.00 | 0.00 | 0.00 | 53 | 1011.7 |
| 20260506210034 | 76 | 213 | 9.6 | 18.2 | 0.00 | 0.00 | 0.00 | 56 | 1011.8 |
| 20260506204536 | 77 | 202 | 7.0 | 13.0 | 0.00 | 0.00 | 0.00 | 60 | 1011.8 |
| 20260506203038 | 77 | 220 | 7.8 | 13.0 | 0.00 | 0.00 | 0.00 | 53 | 1011.9 |
| 20260506201538 | 77 | 198 | 8.7 | 14.8 | 0.00 | 0.00 | 0.00 | 52 | 1012.0 |
| 20260506200038 | 77 | 217 | 7.8 | 13.0 | 0.00 | 0.00 | 0.00 | 54 | 1012.2 |
| 20260506194530 | 76 | 192 | 7.8 | 13.0 | 0.00 | 0.00 | 0.00 | 57 | 1012.5 |
| 20260506193031 | 75 | 219 | 7.0 | 12.2 | 0.00 | 0.00 | 0.00 | 59 | 1012.6 |
| 20260506191530 | 75 | 229 | 7.8 | 12.2 | 0.00 | 0.00 | 0.00 | 58 | 1012.7 |
| 20260506190038 | 74 | 214 | 6.1 | 13.0 | 0.00 | 0.00 | 0.00 | 57 | 1012.8 |
| 20260506184536 | 74 | 213 | 7.0 | 13.0 | 0.00 | 0.00 | 0.00 | 60 | 1012.9 |
| 20260506183032 | 73 | 209 | 7.8 | 13.0 | 0.00 | 0.00 | 0.00 | 60 | 1012.9 |
| 20260506181530 | 72 | 223 | 6.1 | 10.4 | 0.00 | 0.00 | 0.00 | 60 | 1013.0 |
| 20260506180032 | 72 | 193 | 6.1 | 12.2 | 0.00 | 0.00 | 0.00 | 59 | 1013.1 |
| 20260506174531 | 71 | 216 | 7.0 | 12.2 | 0.00 | 0.00 | 0.00 | 61 | 1013.2 |
| 20260506173045 | 70 | 198 | 6.1 | 12.2 | 0.00 | 0.00 | 0.00 | 64 | 1013.2 |
| 20260506171530 | 70 | 203 | 7.0 | 12.2 | 0.00 | 0.00 | 0.00 | 64 | 1013.4 |
| 20260506170031 | 69 | 206 | 6.1 | 10.4 | 0.00 | 0.00 | 0.00 | 66 | 1013.5 |
| 20260506164534 | 69 | 202 | 7.0 | 9.6 | 0.00 | 0.00 | 0.00 | 65 | 1013.6 |
| 20260506163037 | 68 | 202 | 7.0 | 10.4 | 0.00 | 0.00 | 0.00 | 67 | 1013.5 |
| 20260506161531 | 67 | 222 | 5.2 | 7.8 | 0.00 | 0.00 | 0.00 | 68 | 1013.6 |
| 20260506160032 | 66 | 191 | 4.3 | 7.8 | 0.00 | 0.00 | 0.00 | 71 | 1013.6 |
| 20260506154534 | 65 | 184 | 5.2 | 9.6 | 0.00 | 0.00 | 0.00 | 72 | 1013.4 |
| 20260506153030 | 63 | 116 | 3.5 | 7.0 | 0.00 | 0.00 | 0.00 | 77 | 1013.5 |
| 20260506151536 | 62 | 101 | 2.6 | 6.1 | 0.00 | 0.00 | 0.00 | 79 | 1013.3 |
| 20260506150030 | 61 | 94 | 1.7 | 5.2 | 0.00 | 0.00 | 0.00 | 80 | 1013.4 |
| 20260506144538 | 60 | 85 | 2.6 | 5.2 | 0.00 | 0.00 | 0.00 | 81 | 1013.3 |
| 20260506143033 | 59 | 85 | 1.7 | 5.2 | 0.00 | 0.00 | 0.00 | 80 | 1013.4 |
| 20260506141532 | 58 | 0 | 0.0 | 3.5 | 0.00 | 0.00 | 0.00 | 80 | 1013.2 |
| 20260506140033 | 58 | 85 | 0.9 | 2.6 | 0.00 | 0.00 | 0.00 | 80 | 1013.1 |
| 20260506134531 | 58 | 85 | 0.0 | 2.6 | 0.00 | 0.00 | 0.00 | 81 | 1012.9 |
| 20260506133032 | 57 | 0 | 0.0 | 0.0 | 0.00 | 0.00 | 0.00 | 81 | 1012.7 |
| 20260506131541 | 56 | 0 | 0.0 | 0.0 | 0.00 | 0.00 | 0.00 | 82 | 1012.7 |
| 20260506130037 | 55 | 0 | 0.0 | 0.0 | 0.00 | 0.00 | 0.00 | 82 | 1012.5 |
| 20260506124530 | 55 | 0 | 0.0 | 0.0 | 0.00 | 0.00 | 0.00 | 82 | 1012.4 |
| 20260506123030 | 55 | 0 | 0.0 | 0.0 | 0.00 | 0.00 | 0.00 | 80 | 1012.1 |
| 20260506121533 | 55 | 0 | 0.0 | 0.0 | 0.00 | 0.00 | 0.00 | 79 | 1012.0 |
| 20260506120034 | 56 | 0 | 0.0 | 0.0 | 0.00 | 0.00 | 0.00 | 77 | 1011.8 |
| 20260506114535 | 56 | 0 | 0.0 | 0.0 | 0.00 | 0.00 | 0.00 | 77 | 1011.6 |